Airfield :
LOGIN :

Register | Disclaimer

   EN    FR    IT 

 










Legend :    VFR   Marginal VFR   IFR   Intensive IFR   Very Intensive IFR
Visi :
Ceiling :
>= 8 km
>= 3000ft
5 to 8 km
1000 to 3000 ft
1500m to 5 km
500 to 1000 ft
800 to 1500m
200 to 500 ft
< 800m
< 200 ft
Symbols :   Thunderstorms  Fog  Heavy snow  Heavy precipitations  Wind > 20 kt
SIGMETs :     Misc.  Thunderstorms  Icing  Turbulence  Mountain Waves  Volcanic Ashes







- Airport Elevation : 26 ft


ETNT - Wittmundhaven AB

CURRENT METAR :
  • 242120Z 34009KT 9999 BKN013 14/12 Q1021 GRN

EXPIRED METARs :
  • 242020Z 34010KT 9999 BKN013 14/11 Q1021 GRN
  • 241920Z 33008KT 9000 BKN021 13/12 Q1021 WHT

TAF TAF ETNT
Valid from the 24 at 20:00 until the 25 at 05:00 UTC


241900Z 2420/2505 31008KT 8000 NSW BKN015 BKN180
TEMPO 2420/2505 33010KT 4000 -DZ BKN007 BKN150 BY ETGL
No reported NOTAMs for that airfield.



MET'MAP, your aeronautical weather chart ! - Copyright ORBIFLY December 2007 - Disclaimer

ORBIFLY MET'MAP TEAM :

Programming & Development : Alexandra Zaïnal
Concept & Development : Baudouin d'Aumeries
Co-Development & Prog : Marc-Olivier Méhu
Technical & hardware support : Manuel Goepfert

Contact : metmap@orbifly.com




SOURCES & CREDITS :

   NOAA